This is the latest recevied weather packets stored in our database for station/object WB4ROX-10. If no packets are shown the sender has not sent any weather packets the latest 10 day(s).
| Time | Temp. | Humidity | Pressure | Rain* | Wind** | Luminosity | Snow |
|---|---|---|---|---|---|---|---|
| 1788141040 | 64° F | 90% | 764.2 mmHg | 0 in | - | - | - |
| 1788140741 | 64° F | 90% | 764.2 mmHg | 0 in | - | - | - |
| 1788140440 | 64° F | 89% | 764.2 mmHg | 0 in | - | - | - |
| 1788139840 | 64° F | 89% | 764.2 mmHg | 0 in | - | - | - |
| 1788139240 | 64° F | 88% | 764 mmHg | 0 in | - | - | - |
| 1788138040 | 64° F | 88% | 763.9 mmHg | 0 in | - | - | - |
| 1788137440 | 64° F | 88% | 763.6 mmHg | 0 in | - | - | - |
| 1788136840 | 64° F | 87% | 763.7 mmHg | 0 in | - | - | - |
| 1788136240 | 65° F | 86% | 763.8 mmHg | 0 in | - | - | - |
| 1788135040 | 65° F | 83% | 763.5 mmHg | 0 in | - | - | - |
| 1788134740 | 66° F | 83% | 763.6 mmHg | 0 in | - | - | - |
| 1788101440 | 65° F | 89% | 765 mmHg | 0 in | - | - | - |
| 1788100840 | 66° F | 86% | 765.1 mmHg | 0 in | - | - | - |
| 1788099340 | 67° F | 78% | 764.9 mmHg | 0 in | - | - | - |
| 1788098740 | 67° F | 81% | 765 mmHg | 0 in | - | - | - |
| 1788096040 | 66° F | 79% | 765 mmHg | 0 in | - | - | - |
| 1788095739 | 66° F | 79% | 764.9 mmHg | 0 in | - | - | - |
| 1788090640 | 61° F | 87% | 764.5 mmHg | 0 in | - | - | - |
| 1788090341 | 61° F | 87% | 764.4 mmHg | 0 in | - | - | - |
| 1788090043 | 61° F | 87% | 764.3 mmHg | 0 in | - | - | - |
| 1788089741 | 61° F | 86% | 764.4 mmHg | 0 in | - | - | - |
| 1788089441 | 61° F | 87% | 764.4 mmHg | 0 in | - | - | - |
| 1788088842 | 61° F | 89% | 764.3 mmHg | 0 in | - | - | - |
| 1788088241 | 60° F | 92% | 764.2 mmHg | 0 in | - | - | - |
| 1788087940 | 60° F | 93% | 764.2 mmHg | 0 in | - | - | - |
* Rain latest hour (hover to see other rain measurements)
** Current wind speed in m/s (hover to see current wind gust speed)